This demonstration page uses our WeatherBlox Daily Observations layout. Learn more.

Hourly Observations for June 15, 2018

Temp ( °F °C ) Dew Point ( °F °C ) Humidity (%) Winds ( mph kmh ) Pressure ( in mb ) Visibility ( mi km ) Precip ( " mm )
12:15 am 00:15 Clear with Nearby Thunderstorms 82 27.8 62 16.5 50 50 S 18 30 29.62 1003 10 16.0934 0 0
12:35 am 00:35 Clear with Nearby Thunderstorms 82 27.6 62 16.7 51 51 S 18 30 29.62 1003 10 16.0934 0 0
12:55 am 00:55 Clear 82 27.6 62 16.7 51 51 S 18 30 29.62 1003 10 16.0934 0 0
1:15 am 01:15 Clear 82 27.5 61 16.2 50 50 S 24 39 29.62 1003 10 16.0934 0 0
1:35 am 01:35 Clear 83 28.2 55 13 39 39 S 20 31 29.56 1001 10 16.0934 0 0
1:55 am 01:55 Clear 82 27.6 55 12.8 40 40 S 23 37 29.59 1002 10 16.0934 0 0
2:15 am 02:15 Clear 81 27.2 56 13.2 42 42 SSE 9 15 29.59 1002 10 16.0934 0 0
2:35 am 02:35 Clear 82 28 57 14 42 42 SSW 18 30 29.56 1001 10 16.0934 0 0
2:55 am 02:55 Clear 82 27.9 58 14.6 44 44 S 14 22 29.56 1001 10 16.0934 0 0
3:15 am 03:15 Clear 81 27.3 59 14.8 46 46 S 17 28 29.59 1002 10 16.0934 0 0
3:35 am 03:35 Clear 81 27.2 60 15.3 48 48 S 14 22 29.59 1002 10 16.0934 0 0
3:55 am 03:55 Clear 80 26.7 60 15.6 51 51 S 16 26 29.59 1002 10 16.0934 0 0
4:15 am 04:15 Clear 80 26.8 61 16 52 52 S 16 26 29.62 1003 10 16.0934 0 0
4:35 am 04:35 Clear 80 26.6 61 16.1 53 53 S 18 30 29.62 1003 10 16.0934 0 0
4:55 am 04:55 Clear 78 25.7 61 16.2 56 56 S 16 26 29.62 1003 10 16.0934 0 0
5:15 am 05:15 Clear 77 25.2 61 15.9 56 56 S 18 30 29.62 1003 10 16.0934 0 0
5:35 am 05:35 Clear 76 24.6 60 15.8 58 58 S 17 28 29.62 1003 10 16.0934 0 0
5:55 am 05:55 Clear 75 24 60 15.6 59 59 S 16 26 29.65 1004 10 16.0934 0 0
6:15 am 06:15 Sunny 74 23.5 60 15.7 62 62 S 15 24 29.65 1004 10 16.0934 0 0
6:35 am 06:35 Sunny 74 23.2 60 15.5 62 62 S 17 28 29.65 1004 10 16.0934 0 0
6:55 am 06:55 Sunny 73 22.9 60 15.5 63 63 S 15 24 29.65 1004 10 16.0934 0 0
7:15 am 07:15 Sunny 74 23.2 60 15.3 61 61 S 14 22 29.65 1004 10 16.0934 0 0
7:35 am 07:35 Sunny 75 23.7 59 15.2 59 59 S 17 28 29.65 1004 10 16.0934 0 0
7:55 am 07:55 Sunny 76 24.6 60 15.3 56 56 S 17 28 29.62 1003 10 16.0934 0 0
8:15 am 08:15 Sunny 78 25.3 60 15.5 55 55 S 15 24 29.62 1003 10 16.0934 0 0
8:35 am 08:35 Sunny 77 25.1 60 15.5 55 55 S 16 26 29.62 1003 10 16.0934 0 0
8:55 am 08:55 Sunny 78 25.8 60 15.5 53 53 S 17 28 29.62 1003 10 16.0934 0 0
9:15 am 09:15 Sunny 80 26.5 60 15.6 51 51 S 18 30 29.62 1003 10 16.0934 0 0
9:35 am 09:35 Sunny 80 26.5 60 15.6 51 51 S 17 28 29.62 1003 10 16.0934 0 0
9:55 am 09:55 Sunny 82 27.6 61 15.9 49 49 S 18 30 29.62 1003 10 16.0934 0 0
10:15 am 10:15 Sunny 82 28 61 16 48 48 SSW 13 20 29.65 1004 10 16.0934 0 0
10:35 am 10:35 Sunny 84 28.9 61 16 46 46 S 18 30 29.59 1002 10 16.0934 0 0
10:55 am 10:55 Sunny 85 29.4 61 16.1 45 45 SSW 15 24 29.62 1003 10 16.0934 0 0
11:15 am 11:15 Sunny 86 29.8 61 16.1 44 44 S 13 20 29.59 1002 10 16.0934 0 0
11:35 am 11:35 Sunny 86 30.1 61 16.1 43 43 S 15 24 29.59 1002 10 16.0934 0 0
11:55 am 11:55 Sunny 87 30.7 61 16.2 42 42 S 17 28 29.59 1002 10 16.0934 0 0
12:15 pm 12:15 Sunny 89 31.4 62 16.6 41 41 S 15 24 29.59 1002 10 16.0934 0 0
12:35 pm 12:35 Sunny 89 31.7 62 16.4 40 40 S 13 20 29.59 1002 10 16.0934 0 0
12:55 pm 12:55 Sunny 90 32.2 62 16.5 39 39 S 16 26 29.53 1000 10 16.0934 0 0
1:15 pm 13:15 Sunny 91 32.5 62 16.6 38 38 S 20 31 29.53 1000 10 16.0934 0 0
1:35 pm 13:35 Sunny 91 32.7 62 16.5 38 38 S 18 30 29.53 1000 10 16.0934 0 0
1:55 pm 13:55 Sunny 92 33.3 61 16.3 36 36 SSE 16 26 29.53 1000 10 16.0934 0 0
2:15 pm 14:15 Sunny 93 33.9 61 16.3 35 35 S 18 30 29.53 1000 10 16.0934 0 0
2:35 pm 14:35 Sunny 94 34.4 62 16.4 34 34 S 18 30 29.53 1000 10 16.0934 0 0
2:55 pm 14:55 Sunny 95 34.8 61 16.2 33 33 S 20 31 29.53 1000 10 16.0934 0 0
3:15 pm 15:15 Sunny 96 35.3 62 16.4 32 32 S 21 33 29.47 998 10 16.0934 0 0
3:35 pm 15:35 Sunny 96 35.8 61 16.3 31 31 S 15 24 29.47 998 10 16.0934 0 0
3:55 pm 15:55 Sunny 98 36.4 61 15.9 29 29 SSW 20 31 29.47 998 10 16.0934 0 0
4:15 pm 16:15 Sunny 98 36.6 61 16.1 30 30 S 20 31 29.47 998 10 16.0934 0 0
4:35 pm 16:35 Sunny 97 36.2 60 15.4 29 29 SSW 22 35 29.47 998 10 16.0934 0 0
4:55 pm 16:55 Sunny 98 36.7 60 15.5 28 28 S 22 35 29.47 998 10 16.0934 0 0
5:15 pm 17:15 Sunny 99 37 61 15.9 29 29 S 17 28 29.47 998 10 16.0934 0 0
5:35 pm 17:35 Sunny 97 36 61 16.3 31 31 S 26 43 29.44 997 10 16.0934 0 0
5:55 pm 17:55 Sunny 97 36 62 16.6 32 32 S 21 33 29.44 997 10 16.0934 0 0
6:15 pm 18:15 Sunny 96 35.6 62 16.5 32 32 S 25 41 29.44 997 10 16.0934 0 0
6:35 pm 18:35 Sunny 94 34.4 62 16.4 34 34 SSE 22 35 29.47 998 10 16.0934 0 0
6:55 pm 18:55 Sunny 94 34.3 62 16.5 34 34 SSE 21 33 29.47 998 10 16.0934 0 0
7:15 pm 19:15 Sunny 94 34.2 62 16.5 35 35 SSE 22 35 29.47 998 10 16.0934 0 0
7:35 pm 19:35 Sunny 93 33.9 61 16.1 34 34 SSE 21 33 29.47 998 10 16.0934 0 0
7:55 pm 19:55 Sunny 92 33.6 60 15.7 34 34 S 22 35 29.47 998 10 16.0934 0 0
8:15 pm 20:15 Sunny 91 33 60 15.5 35 35 S 21 33 29.5 999 10 16.0934 0 0
8:35 pm 20:35 Sunny 90 32 60 15.5 37 37 SSE 17 28 29.5 999 10 16.0934 0 0
8:55 pm 20:55 Sunny 88 31.2 60 15.5 39 39 SSE 16 26 29.53 1000 10 16.0934 0 0
9:15 pm 21:15 Clear 87 30.7 60 15.4 40 40 SSE 17 28 29.53 1000 10 16.0934 0 0
9:35 pm 21:35 Clear 86 30.1 60 15.4 41 41 SSE 17 28 29.53 1000 10 16.0934 0 0
9:55 pm 21:55 Clear 86 29.9 59 15.2 41 41 SSE 22 35 29.53 1000 10 16.0934 0 0
10:15 pm 22:15 Clear 86 29.8 59 15 41 41 SSE 20 31 29.56 1001 10 16.0934 0 0
10:35 pm 22:35 Clear 85 29.7 59 14.9 41 41 SSE 20 31 29.56 1001 10 16.0934 0 0
10:55 pm 22:55 Clear 85 29.2 59 15.1 42 42 SSE 17 28 29.56 1001 10 16.0934 0 0
11:15 pm 23:15 Clear 84 29 60 15.5 44 44 SSE 20 31 29.56 1001 10 16.0934 0 0
11:35 pm 23:35 Clear with Thunderstorms 84 29.1 60 15.5 44 44 S 18 30 29.59 1002 10 16.0934 0 0
11:55 pm 23:55 Clear with Thunderstorms 84 29 60 15.4 44 44 S 21 33 29.59 1002 10 16.0934 0 0

Powered by AerisWeather